Date String (YYYY-MM-DD hh:mm:ss) UTC,Instrument flags,Ambient pressure (hPa),Sample flow (lpm),Bypass flow (lpm),Sample temperature (°C),Ambient temperature (°C),ASC tube jacket temperature (°C),LED temperature (°C),Box temperature (°C),Sample RH (%),Span deviation,Mass concentration (μg/m³),Mass concentration (μg/m³),Mass concentration (μg/m³)
DateTimeUTC,F1_M11,P_M11,Q1_M11,Q2_M11,T1_M11,T2_M11,T3_M11,T4_M11,T5_M11,U1_M11,ZSPAN_M11,X2_M11,X0_M11,X1_M11
2022-04-29 21:00:00,,0816.3,5.01,0.00,26.6,25.6,00.0,35.6,28.5,06.2,0000.0,0003.66,0012.61,0002.11
2022-04-29 21:01:00,,0816.5,4.99,0.00,26.6,25.6,00.0,35.6,28.4,05.9,0000.0,0003.77,0014.05,0002.14
2022-04-29 21:02:00,,0816.4,5.00,0.00,26.6,25.6,00.0,35.6,28.4,05.7,0000.0,0003.81,0014.72,0002.17
2022-04-29 21:03:00,,0816.6,5.00,0.00,26.6,25.5,00.0,35.6,28.4,05.7,0000.0,0003.83,0015.14,0002.19
2022-04-29 21:04:00,,0816.3,4.99,0.00,26.6,25.5,00.0,35.6,28.4,05.4,0000.0,0003.79,0015.17,0002.21
2022-04-29 21:05:00,,0816.3,5.00,0.00,26.6,25.5,00.0,35.6,28.4,05.2,0000.0,0003.76,0015.76,0002.23
2022-04-29 21:06:00,,0816.4,5.01,0.00,26.6,25.6,00.0,35.6,28.4,05.3,0000.0,0003.73,0016.62,0002.24
2022-04-29 21:07:00,,0816.4,4.99,0.00,26.6,25.6,00.0,35.6,28.4,05.5,0000.0,0003.63,0016.45,0002.24
2022-04-29 21:08:00,,0816.5,4.99,0.00,26.6,25.6,00.0,35.6,28.4,05.6,0000.0,0003.59,0016.24,0002.26
2022-04-29 21:09:00,,0816.6,5.02,0.00,26.6,25.6,00.0,35.6,28.4,05.4,0000.0,0003.69,0015.94,0002.29
2022-04-29 21:10:00,,0816.4,5.00,0.00,26.6,25.6,00.0,35.6,28.4,05.5,0000.0,0003.70,0015.25,0002.33
2022-04-29 21:11:00,,0816.5,4.99,0.00,26.6,25.6,00.0,35.6,28.4,05.1,0000.0,0003.66,0013.95,0002.36
2022-04-29 21:12:00,,0816.4,5.02,0.00,26.6,25.6,00.0,35.6,28.4,05.2,0000.0,0003.59,0013.00,0002.37
2022-04-29 21:13:00,,0816.4,4.99,0.00,26.6,25.6,00.0,35.6,28.4,05.2,0000.0,0003.57,0012.74,0002.37
2022-04-29 21:14:00,,0816.4,5.00,0.00,26.6,25.6,00.0,35.6,28.4,05.0,0000.0,0003.60,0013.06,0002.37
2022-04-29 21:15:00,,0816.4,5.01,0.00,26.6,25.6,00.0,35.6,28.4,05.1,0000.0,0003.61,0013.34,0002.37
2022-04-29 21:16:00,,0816.4,4.98,0.00,26.6,25.6,00.0,35.6,28.4,05.2,0000.0,0003.62,0012.70,0002.36
2022-04-29 21:17:00,,0816.6,5.01,0.00,26.6,25.6,00.0,35.6,28.4,05.0,0000.0,0003.65,0011.78,0002.36
2022-04-29 21:18:00,,0816.7,4.99,0.00,26.6,25.7,00.0,35.6,28.4,05.3,0000.0,0003.66,0011.72,0002.36
2022-04-29 21:19:00,,0816.7,5.00,0.00,26.6,25.6,00.0,35.6,28.3,05.3,0000.0,0003.64,0011.54,0002.34
2022-04-29 21:20:00,,0816.6,4.99,0.00,26.6,25.6,00.0,35.6,28.4,05.2,0000.0,0003.54,0010.53,0002.32
2022-04-29 21:21:00,,0816.6,4.99,0.00,26.6,25.6,00.0,35.6,28.4,05.0,0000.0,0003.54,0009.91,0002.29
2022-04-29 21:22:00,,0816.6,5.01,0.00,26.6,25.7,00.0,35.6,28.5,04.9,0000.0,0003.57,0010.31,0002.28
2022-04-29 21:23:00,,0816.3,4.98,0.00,26.6,25.7,00.0,35.6,28.5,05.0,0000.0,0003.52,0010.10,0002.26
2022-04-29 21:24:00,,0816.3,5.00,0.00,26.6,25.7,00.0,35.6,28.5,05.1,0000.0,0003.55,0010.02,0002.25
2022-04-29 21:25:00,,0816.2,4.99,0.00,26.7,25.7,00.0,35.6,28.5,05.2,0000.0,0003.54,0009.41,0002.24
2022-04-29 21:26:00,,0816.1,5.03,0.00,26.7,25.7,00.0,35.6,28.5,05.4,0000.0,0003.55,0009.86,0002.23
2022-04-29 21:27:00,,0816.1,5.00,0.00,26.7,25.6,00.0,35.6,28.5,05.2,0000.0,0003.62,0010.90,0002.24
2022-04-29 21:28:00,,0816.1,4.98,0.00,26.7,25.6,00.0,35.6,28.5,05.1,0000.0,0003.73,0011.46,0002.24
2022-04-29 21:29:00,,0816.0,5.00,0.00,26.7,25.6,00.0,35.6,28.5,05.3,0000.0,0003.77,0012.23,0002.22
2022-04-29 21:30:00,,0816.1,5.01,0.00,26.7,25.6,00.0,35.6,28.5,05.4,0000.0,0003.77,0013.11,0002.21
2022-04-29 21:31:00,,0816.1,5.00,0.00,26.6,25.6,00.0,35.6,28.5,05.5,0000.0,0003.76,0013.12,0002.18
2022-04-29 21:32:00,,0816.1,4.98,0.00,26.6,25.6,00.0,35.6,28.5,05.4,0000.0,0003.70,0013.13,0002.18
2022-04-29 21:33:00,,0816.4,5.00,0.00,26.6,25.6,00.0,35.6,28.5,05.4,0000.0,0003.63,0012.99,0002.16
2022-04-29 21:34:00,,0816.2,5.00,0.00,26.6,25.6,00.0,35.6,28.4,05.7,0000.0,0003.63,0012.76,0002.13
2022-04-29 21:35:00,,0816.2,5.00,0.00,26.6,25.6,00.0,35.6,28.4,05.7,0000.0,0003.61,0012.67,0002.11
2022-04-29 21:36:00,,0816.2,5.00,0.00,26.6,25.6,00.0,35.6,28.4,05.7,0000.0,0003.59,0012.39,0002.11
2022-04-29 21:37:00,,0816.2,5.01,0.00,26.6,25.6,00.0,35.6,28.5,05.8,0000.0,0003.58,0011.54,0002.10
2022-04-29 21:38:00,,0816.3,4.99,0.00,26.6,25.6,00.0,35.6,28.4,05.8,0000.0,0003.46,0010.40,0002.08
2022-04-29 21:39:00,,0816.1,5.01,0.00,26.6,25.6,00.0,35.6,28.4,05.9,0000.0,0003.34,0010.31,0002.06
2022-04-29 21:40:00,,0816.3,4.99,0.00,26.6,25.6,00.0,35.6,28.4,05.9,0000.0,0003.31,0010.34,0002.05
2022-04-29 21:41:00,,0816.3,5.00,0.00,26.6,25.6,00.0,35.6,28.4,05.9,0000.0,0003.35,0009.55,0002.04
2022-04-29 21:42:00,,0816.4,5.01,0.00,26.6,25.6,00.0,35.6,28.4,05.8,0000.0,0003.36,0009.46,0002.04
2022-04-29 21:43:00,,0816.4,4.99,0.00,26.6,25.7,00.0,35.6,28.4,06.0,0000.0,0003.43,0009.58,0002.04
2022-04-29 21:44:00,,0816.5,5.02,0.00,26.6,25.7,00.0,35.6,28.4,05.8,0000.0,0003.43,0009.10,0002.04
2022-04-29 21:45:00,,0816.2,5.00,0.00,26.6,25.7,00.0,35.6,28.4,05.8,0000.0,0003.40,0008.91,0002.03
2022-04-29 21:46:00,,0816.1,5.00,0.00,26.6,25.6,00.0,35.6,28.5,05.8,0000.0,0003.36,0008.78,0002.02
2022-04-29 21:47:00,,0816.3,5.01,0.00,26.6,25.6,00.0,35.6,28.5,05.8,0000.0,0003.33,0009.48,0002.01
2022-04-29 21:48:00,,0816.3,5.01,0.00,26.6,25.6,00.0,35.6,28.5,05.9,0000.0,0003.34,0009.48,0002.00
2022-04-29 21:49:00,,0816.4,4.99,0.00,26.6,25.6,00.0,35.5,28.5,05.9,0000.0,0003.38,0010.04,0001.99
2022-04-29 21:50:00,,0816.4,5.00,0.00,26.6,25.7,00.0,35.5,28.5,06.1,0000.0,0003.42,0009.95,0001.98
2022-04-29 21:51:00,,0816.4,5.01,0.00,26.6,25.6,00.0,35.5,28.5,06.1,0000.0,0003.38,0009.45,0001.97
2022-04-29 21:52:00,,0816.2,4.99,0.00,26.6,25.6,00.0,35.6,28.4,06.1,0000.0,0003.33,0009.20,0001.96
2022-04-29 21:53:00,,0816.3,4.99,0.00,26.6,25.6,00.0,35.6,28.5,06.1,0000.0,0003.40,0009.37,0001.97
2022-04-29 21:54:00,,0816.3,5.00,0.00,26.6,25.7,00.0,35.5,28.5,06.1,0000.0,0003.33,0009.19,0001.97
2022-04-29 21:55:00,,0816.1,5.00,0.00,26.6,25.6,00.0,35.5,28.5,06.1,0000.0,0003.36,0009.65,0001.96
2022-04-29 21:56:00,,0816.1,5.01,0.00,26.6,25.6,00.0,35.5,28.5,06.2,0000.0,0003.50,0010.16,0001.96
2022-04-29 21:57:00,,0816.2,5.00,0.00,26.6,25.6,00.0,35.5,28.5,06.1,0000.0,0003.59,0011.27,0001.96
2022-04-29 21:58:00,,0816.2,5.00,0.00,26.6,25.6,00.0,35.5,28.5,06.1,0000.0,0003.64,0011.21,0001.95
2022-04-29 21:59:00,,0816.3,5.01,0.00,26.6,25.6,00.0,35.5,28.5,06.0,0000.0,0003.63,0011.25,0001.94
